Location: ??????????
(42.1626°N, 44.1160°E)
Time: 15:05:20
(UTC+00:00)

Cosmos 1992 Rocket - Pass Details

Date: 03 March 2021
Orbit: 759 x 765 km, 74.0° (Epoch: 20 April)

Event Time Altitude Azimuth Distance (km) Brightness Sun altitude
Rises 16:06:17 0° 205° (SSW) 3,216 7.5 -13.8°
Reaches altitude 10° 16:08:40 10° 208° (SSW) 2,294 6.8 -14.3°
Maximum altitude 16:13:51 69° 291° (WNW) 820 4.3 -15.2°
Drops below altitude 10° 16:19:04 10° 15° (NNE) 2,306 6.4 -16.2°
Sets 16:21:28 0° 18° (NNE) 3,235 7.1 -16.6°
